When you browse on this site, cookies collect data to enhance your experience and personalize the content and advertising you see.
Visit our Privacy Policy to learn more. By continuing to use the site, you agree to this use of cookies and data.

Hourly Weather Polotsk

Today, 9 July, Thursday

Time Temperature Precipitation Wind Pressure Humidity
00:00 +12°C° 0 mm 2 mps 745 mmHg 91%
01:00 +10°C° 0 mm 2 mps 745 mmHg 94%
02:00 +9°C° 0 mm 3 mps 745 mmHg 97%
03:00 +9°C° 0 mm 2 mps 745 mmHg 96%
04:00 +9°C° 0 mm 2 mps 745 mmHg 96%
05:00 +9°C° 0 mm 2 mps 745 mmHg 95%
06:00 +10°C° 0 mm 3 mps 746 mmHg 87%
07:00 +12°C° 0 mm 3 mps 746 mmHg 78%
08:00 +13°C° 0 mm 3 mps 747 mmHg 69%
09:00 +14°C° 0 mm 4 mps 747 mmHg 66%
10:00 +15°C° 0 mm 4 mps 747 mmHg 62%
11:00 +16°C° 0 mm 5 mps 747 mmHg 59%
12:00 +17°C° 0 mm 5 mps 747 mmHg 57%
13:00 +18°C° 0 mm 4 mps 747 mmHg 54%
14:00 +19°C° 0 mm 4 mps 747 mmHg 52%
15:00 +19°C° 0.1 mm 4 mps 747 mmHg 54%
16:00 +19°C° 0.1 mm 4 mps 747 mmHg 55%
17:00 +19°C° 0.1 mm 4 mps 747 mmHg 57%
18:00 +18°C° 0 mm 3 mps 747 mmHg 65%
19:00 +16°C° 0 mm 3 mps 747 mmHg 73%
20:00 +15°C° 0 mm 2 mps 747 mmHg 81%
21:00 +14°C° 0 mm 2 mps 747 mmHg 85%
22:00 +13°C° 0 mm 2 mps 747 mmHg 88%
23:00 +12°C° 0 mm 2 mps 748 mmHg 92%

Tomorrow, 10 July, Friday

Time Temperature Precipitation Wind Pressure Humidity
00:00 +10°C° 0 mm 2 mps 748 mmHg 91%
01:00 +10°C° 0 mm 2 mps 748 mmHg 91%
02:00 +10°C° 0 mm 2 mps 748 mmHg 91%
03:00 +10°C° 0 mm 2 mps 748 mmHg 89%
04:00 +11°C° 0 mm 3 mps 747 mmHg 87%
05:00 +11°C° 0 mm 3 mps 747 mmHg 85%
06:00 +12°C° 0.5 mm 3 mps 747 mmHg 87%
07:00 +12°C° 0.5 mm 4 mps 746 mmHg 88%
08:00 +13°C° 0.5 mm 4 mps 746 mmHg 90%
09:00 +13°C° 1.2 mm 5 mps 746 mmHg 92%
10:00 +13°C° 1.2 mm 5 mps 745 mmHg 93%
11:00 +13°C° 1.2 mm 6 mps 745 mmHg 95%
12:00 +15°C° 0.4 mm 6 mps 745 mmHg 94%
13:00 +16°C° 0.4 mm 5 mps 744 mmHg 94%
14:00 +17°C° 0.4 mm 5 mps 744 mmHg 93%
15:00 +19°C° 0.9 mm 5 mps 744 mmHg 91%
16:00 +20°C° 0.9 mm 5 mps 744 mmHg 89%
17:00 +21°C° 0.9 mm 5 mps 744 mmHg 87%
18:00 +20°C° 0.2 mm 4 mps 744 mmHg 89%
19:00 +19°C° 0.2 mm 4 mps 744 mmHg 91%
20:00 +19°C° 0.2 mm 3 mps 744 mmHg 93%
21:00 +18°C° 0 mm 3 mps 744 mmHg 94%
22:00 +17°C° 0 mm 2 mps 745 mmHg 95%
23:00 +17°C° 0 mm 2 mps 745 mmHg 96%

Day after tomorrow, 11 July, Saturday

Time Temperature Precipitation Wind Pressure Humidity
00:00 +17°C° 0 mm 3 mps 745 mmHg 96%
01:00 +17°C° 0 mm 3 mps 745 mmHg 96%
02:00 +18°C° 0 mm 3 mps 744 mmHg 96%
03:00 +18°C° 0 mm 4 mps 744 mmHg 95%
04:00 +18°C° 0 mm 4 mps 744 mmHg 95%
05:00 +19°C° 0 mm 4 mps 744 mmHg 94%
06:00 +19°C° 0.2 mm 5 mps 744 mmHg 92%
07:00 +20°C° 0.2 mm 5 mps 744 mmHg 91%
08:00 +21°C° 0.2 mm 5 mps 745 mmHg 89%
09:00 +22°C° 0.1 mm 6 mps 745 mmHg 84%
10:00 +22°C° 0.1 mm 6 mps 746 mmHg 78%
11:00 +23°C° 0.1 mm 6 mps 747 mmHg 73%
12:00 +23°C° 0 mm 5 mps 747 mmHg 69%
13:00 +23°C° 0 mm 5 mps 747 mmHg 65%
14:00 +23°C° 0 mm 5 mps 748 mmHg 61%
15:00 +23°C° 0 mm 4 mps 748 mmHg 62%
16:00 +22°C° 0 mm 4 mps 748 mmHg 63%
17:00 +22°C° 0 mm 4 mps 748 mmHg 63%
18:00 +20°C° 0 mm 3 mps 748 mmHg 67%
19:00 +19°C° 0 mm 3 mps 749 mmHg 71%
20:00 +17°C° 0 mm 3 mps 749 mmHg 75%
21:00 +17°C° 0 mm 3 mps 749 mmHg 74%
22:00 +16°C° 0 mm 3 mps 749 mmHg 74%
23:00 +14°C° 0 mm 4 mps 750 mmHg 74%

12 July, Sunday

Time Temperature Precipitation Wind Pressure Humidity
00:00 +14°C° 0 mm 3 mps 750 mmHg 75%
01:00 +14°C° 0 mm 3 mps 750 mmHg 76%
02:00 +14°C° 0 mm 2 mps 750 mmHg 77%
03:00 +14°C° 0.3 mm 2 mps 750 mmHg 81%
04:00 +13°C° 0.3 mm 2 mps 750 mmHg 86%
05:00 +13°C° 0.3 mm 2 mps 750 mmHg 91%
06:00 +13°C° 0.8 mm 2 mps 750 mmHg 92%
07:00 +13°C° 0.8 mm 2 mps 750 mmHg 93%
08:00 +13°C° 0.8 mm 2 mps 750 mmHg 94%
09:00 +13°C° 0.3 mm 2 mps 750 mmHg 93%
10:00 +13°C° 0.3 mm 2 mps 750 mmHg 92%
11:00 +12°C° 0.3 mm 3 mps 750 mmHg 90%
12:00 +14°C° 0 mm 2 mps 750 mmHg 89%
13:00 +14°C° 0 mm 2 mps 750 mmHg 88%
14:00 +14°C° 0 mm 2 mps 750 mmHg 86%
15:00 +14°C° 0 mm 2 mps 750 mmHg 85%
16:00 +14°C° 0 mm 2 mps 750 mmHg 84%
17:00 +14°C° 0 mm 2 mps 750 mmHg 84%
18:00 +14°C° 0 mm 2 mps 750 mmHg 84%
19:00 +14°C° 0 mm 1 mps 750 mmHg 85%
20:00 +13°C° 0 mm 1 mps 750 mmHg 86%
21:00 +13°C° 0.1 mm 1 mps 749 mmHg 86%
22:00 +13°C° 0.1 mm 2 mps 749 mmHg 86%
23:00 +13°C° 0.1 mm 2 mps 749 mmHg 87%

13 July, Monday

Time Temperature Precipitation Wind Pressure Humidity
00:00 +13°C° 0 mm 2 mps 749 mmHg 88%
01:00 +13°C° 0 mm 2 mps 748 mmHg 89%
02:00 +12°C° 0 mm 3 mps 748 mmHg 90%
03:00 +12°C° 0.1 mm 3 mps 748 mmHg 90%
04:00 +12°C° 0.1 mm 3 mps 747 mmHg 90%
05:00 +12°C° 0.1 mm 4 mps 747 mmHg 91%
06:00 +12°C° 0.9 mm 4 mps 747 mmHg 92%
07:00 +12°C° 0.9 mm 4 mps 747 mmHg 93%
08:00 +12°C° 0.9 mm 4 mps 746 mmHg 94%
09:00 +12°C° 1.7 mm 4 mps 746 mmHg 94%
10:00 +12°C° 1.7 mm 4 mps 746 mmHg 95%
11:00 +12°C° 1.7 mm 4 mps 746 mmHg 96%
12:00 +12°C° 1 mm 4 mps 746 mmHg 96%
13:00 +13°C° 1 mm 5 mps 746 mmHg 96%
14:00 +13°C° 1 mm 5 mps 745 mmHg 96%
15:00 +13°C° 0 mm 5 mps 745 mmHg 95%
16:00 +13°C° 0 mm 5 mps 745 mmHg 94%
17:00 +14°C° 0 mm 5 mps 745 mmHg 93%
18:00 +14°C° 0 mm 5 mps 745 mmHg 93%
19:00 +14°C° 0 mm 4 mps 744 mmHg 93%
20:00 +13°C° 0 mm 4 mps 744 mmHg 93%
21:00 +13°C° 0 mm 4 mps 744 mmHg 94%
22:00 +13°C° 0 mm 4 mps 744 mmHg 94%
23:00 +13°C° 0 mm 4 mps 744 mmHg 95%

14 July, Tuesday

Time Temperature Precipitation Wind Pressure Humidity
00:00 +13°C° 0.1 mm 4 mps 744 mmHg 95%
01:00 +13°C° 0.1 mm 4 mps 743 mmHg 95%
02:00 +13°C° 0.1 mm 4 mps 743 mmHg 95%
03:00 +13°C° 0.1 mm 4 mps 743 mmHg 95%
04:00 +13°C° 0.1 mm 4 mps 743 mmHg 95%
05:00 +13°C° 0.1 mm 4 mps 742 mmHg 95%
06:00 +13°C° 0 mm 4 mps 742 mmHg 94%
07:00 +13°C° 0 mm 4 mps 742 mmHg 93%
08:00 +14°C° 0 mm 5 mps 742 mmHg 92%
09:00 +15°C° 0 mm 5 mps 742 mmHg 88%
10:00 +16°C° 0 mm 5 mps 742 mmHg 85%
11:00 +17°C° 0 mm 5 mps 742 mmHg 81%
12:00 +19°C° 0 mm 5 mps 742 mmHg 80%
13:00 +19°C° 0 mm 5 mps 742 mmHg 79%
14:00 +19°C° 0 mm 5 mps 741 mmHg 77%
15:00 +19°C° 0 mm 5 mps 741 mmHg 78%
16:00 +19°C° 0 mm 5 mps 741 mmHg 79%
17:00 +19°C° 0 mm 5 mps 741 mmHg 80%
18:00 +19°C° 0 mm 4 mps 740 mmHg 81%
19:00 +18°C° 0 mm 4 mps 740 mmHg 83%
20:00 +18°C° 0 mm 4 mps 740 mmHg 85%
21:00 +17°C° 0.2 mm 5 mps 739 mmHg 85%
22:00 +16°C° 0.2 mm 5 mps 739 mmHg 86%
23:00 +16°C° 0.2 mm 6 mps 738 mmHg 87%
Show more